Temperature
16 16 16 16 16 16 17 17 17 17 17 17 17 17 16 16 16 16 16 15 15 15 15 15 14 14 14 14 14 14 14 14 14 14 14 14 13 13
16 16 16 16 16 16 16 16 16 16 16 16 17 16 16 16 16 16 16 15 15 15 15 15 15 15 14 14 14 14 14 14 14 14 14 14 13 13
16 16 16 16 16 16 16 16 16 16 16 16 16 16 16 16 16 16 16 15 15 15 15 15 15 15 15 14 14 14 14 14 14 14 14 14 14 13
16 16 16 16 16 16 16 16 16 16 16 16 16 16 16 16 16 16 16 16 15 15 15 15 15 15 15 14 14 14 14 14 14 14 14 14 13 13
16 16 16 16 16 16 16 16 16 16 16 16 16 16 16 16 16 16 16 16 15 15 15 15 15 15 14 14 14 14 14 14 14 14 13 13 13 13
16 16 16 15 15 15 15 15 15 15 15 15 15 15 15 15 15 15 15 15 15 15 15 15 15 15 14 14 14 14 14 14 14 13 13 13 13 13
15 15 15 15 15 15 15 15 15 15 15 15 15 15 15 15 15 15 15 15 15 15 15 15 15 14 14 14 14 14 14 13 13 13 13 13 13 12
15 15 15 15 15 15 15 15 15 15 15 15 15 15 15 15 15 15 15 15 15 15 15 15 14 14 14 14 14 13 13 13 13 13 12 12 12 12
15 15 15 15 15 15 15 15 15 15 15 15 15 15 15 15 14 14 14 14 14 14 14 14 14 14 14 13 13 13 13 12 12 12 12 12 12 12
15 15 15 15 15 15 15 15 15 15 15 15 15 15 14 14 14 14 14 14 14 14 13 13 13 13 13 13 13 12 12 12 12 11 11 11 11 11
15 15 15 15 15 14 14 14 14 14 14 14 14 14 14 14 14 13 13 13 13 13 13 13 13 13 13 13 12 12 12 11 11 11 11 11 11 11
15 15 15 15 14 14 14 14 14 14 14 14 14 14 13 13 13 13 13 13 12 12 12 12 12 12 11 12 12 11 11 11 11 11 10 10 10 10
15 15 15 14 14 14 14 14 14 14 13 13 13 13 13 13 13 13 12 12 12 12 12 11 11 11 10 10 11 11 11 10 10 10 10 10 10 9
15 14 14 14 14 14 14 14 13 13 13 13 13 13 13 12 12 12 12 12 12 11 11 11 10 10 10 10 10 10 10 10 10 10 10 9 9 9
14 14 14 14 13 13 13 13 13 13 12 12 12 12 12 12 12 11 11 11 11 11 10 10 10 10 9 9 9 9 9 9 9 9 9 9 9 9
13 13 13 13 13 13 12 12 12 12 12 12 12 11 11 11 11 11 11 10 10 10 10 10 9 9 9 9 9 9 8 8 9 8 8 9 9 9
13 13 12 12 12 12 12 11 11 11 11 11 11 11 10 10 10 10 10 9 9 9 9 9 9 9 8 8 8 8 8 8 8 8 8 8 9 8
12 12 12 12 11 11 11 11 11 11 10 10 10 10 10 10 9 9 9 9 9 9 8 8 8 8 8 8 8 8 7 7 7 7 7 7 7 8
12 11 11 11 11 10 10 10 10 10 10 10 9 9 9 9 9 8 8 8 8 8 7 7 7 7 7 6 7 7 7 6 6 6 6 6 7 7
11 10 10 10 10 10 10 9 9 9 9 9 9 8 8 8 8 8 8 7 7 7 7 7 6 6 6 6 6 6 6 6 6 6 6 6 6 7
10 10 9 9 9 9 9 9 8 8 8 8 8 8 7 7 7 7 7 7 6 6 6 6 6 6 5 5 5 6 6 6 6 5 5 5 5 6
9 9 8 8 8 8 8 8 8 7 7 7 7 7 7 7 6 6 6 6 6 6 5 5 5 5 5 5 5 5 5 6 5 5 5 5 5 5
8 8 8 7 7 7 7 7 7 7 6 6 6 6 6 6 6 5 5 5 5 5 5 5 5 4 4 4 4 5 5 5 5 5 5 5 5 5
Wind_Speed
6 6 4 3 4 4 3 4 5 3 3 3 3 2 5 8 9 9 10 12 13 13 13 13 13 13 14 14 14 14 14 13 13 13 13 13 13 13
5 6 5 3 3 3 4 3 3 4 4 3 3 2 3 5 7 8 9 11 12 13 13 14 14 14 14 14 15 15 15 15 15 15 15 15 15 15
6 7 6 5 4 4 3 4 3 4 4 3 2 2 2 3 3 5 7 8 9 12 13 13 14 14 14 14 14 15 15 15 15 15 16 16 16 16
8 8 7 6 6 5 4 5 4 4 4 4 2 2 3 2 2 3 4 6 7 10 11 11 12 12 13 13 14 14 14 15 15 15 16 16 16 16
9 9 8 8 7 5 6 5 4 4 3 3 3 2 2 1 1 2 3 3 5 6 7 9 9 10 10 11 11 12 12 13 13 14 14 14 15 15
9 9 9 9 9 8 7 6 5 4 3 3 2 2 2 1 1 2 3 3 3 4 5 6 6 7 8 8 9 10 10 11 11 11 12 12 13 14
8 8 9 10 11 9 7 7 7 5 4 3 3 2 2 2 3 3 3 3 3 3 3 3 4 5 6 7 8 9 9 9 9 10 11 11 12 13
9 8 8 9 10 11 11 10 10 8 7 5 4 5 5 5 3 3 3 2 4 2 3 4 3 5 6 7 9 9 9 9 9 10 11 11 12 13
8 7 7 7 8 7 9 10 10 11 10 7 7 7 6 6 5 4 5 5 5 2 2 4 3 5 6 8 10 10 10 10 10 11 11 12 12 13
8 8 8 7 7 8 7 7 7 8 9 8 8 8 7 6 6 5 4 4 4 3 3 4 4 4 5 7 10 11 11 11 12 12 13 13 13 14
7 8 8 8 9 10 8 7 6 6 8 10 11 9 8 7 6 3 3 3 4 4 4 4 3 4 4 5 7 9 10 12 13 13 13 14 14 13
5 6 8 9 9 10 8 7 8 7 5 4 4 5 5 5 7 7 5 5 4 4 3 4 3 2 4 3 4 5 7 9 11 12 13 13 13 9
5 5 5 8 9 10 9 8 9 6 4 4 4 3 3 3 4 5 6 6 6 5 3 3 3 3 4 4 4 4 5 6 7 8 11 12 13 10
6 4 4 6 7 6 6 5 5 4 3 3 3 3 3 3 3 4 5 7 7 7 5 4 4 4 4 6 6 5 5 6 6 7 8 11 12 13
4 5 6 6 5 3 3 3 3 3 3 3 3 3 3 3 2 2 2 3 4 5 6 6 5 5 5 6 6 6 6 6 6 6 7 8 9 9
3 3 4 4 3 2 1 1 2 2 2 2 2 2 2 1 2 2 2 2 2 4 4 5 5 5 6 7 7 8 8 6 6 7 8 9 9 10
5 3 3 2 2 1 1 1 1 1 1 1 2 2 2 2 2 2 2 2 2 4 4 3 4 5 7 7 7 8 8 8 8 8 8 10 11 10
6 3 3 2 2 2 1 0 0 0 1 1 1 1 2 2 2 2 2 2 3 4 4 4 4 4 4 5 8 8 8 8 9 9 9 10 12 11
5 3 2 2 1 1 1 1 0 1 1 1 1 1 2 2 2 2 3 3 4 4 5 4 3 3 6 8 6 6 7 9 9 10 9 9 11 12
2 2 1 1 1 1 1 0 0 1 0 0 1 1 1 1 2 3 3 4 4 5 5 5 4 4 6 7 6 7 9 8 9 10 10 10 10 11
3 3 2 1 1 1 1 1 1 1 1 1 1 1 2 2 2 3 4 4 4 4 5 6 5 6 5 5 6 8 8 9 10 9 10 10 10 9
4 4 3 3 3 3 2 2 1 2 2 2 2 2 2 2 2 3 3 4 4 5 6 5 5 5 4 6 8 10 11 10 10 12 13 12 7 7
5 4 4 4 4 4 3 3 3 3 2 2 2 2 3 3 3 3 4 4 4 5 5 5 5 5 5 6 8 9 12 12 9 9 8 9 12 16
Wind_Direction
190 187 186 190 186 186 173 168 163 190 238 250 249 244 234 231 234 228 233 239 241 244 248 253 257 260 262 264 265 265 266 267 267 267 267 268 267 267
185 184 190 189 184 185 185 186 178 179 214 235 238 250 244 240 233 228 237 245 248 249 253 257 261 264 265 267 267 267 267 267 267 267 267 268 269 268
189 191 197 186 185 187 178 177 182 176 204 242 241 251 241 244 235 233 243 246 252 253 255 258 262 265 267 269 269 269 269 269 269 268 269 269 269 268
196 192 197 189 191 190 184 189 191 190 194 221 235 238 242 245 241 240 245 245 249 258 256 258 261 265 269 270 271 271 271 271 271 270 269 269 269 269
196 195 196 186 194 193 193 196 196 190 189 202 229 229 250 258 251 252 253 256 259 260 254 254 259 267 271 272 272 273 273 273 273 272 272 272 272 272
199 199 197 194 198 195 196 198 190 184 181 195 222 235 244 248 231 242 258 251 262 268 260 262 267 275 273 272 272 275 276 275 276 276 277 278 278 277
203 204 206 204 203 197 198 197 188 189 189 199 216 223 231 223 226 220 238 260 263 249 262 268 269 275 275 274 273 272 272 272 274 277 280 283 284 283
207 209 213 210 211 209 208 199 189 191 197 199 211 221 231 227 224 217 222 242 266 226 232 262 253 265 270 268 269 269 269 270 274 278 282 284 284 284
206 206 211 212 202 205 211 211 210 211 202 198 214 225 229 222 209 222 222 228 243 243 220 265 253 261 267 268 268 265 265 268 273 279 283 285 286 287
204 204 207 209 205 200 205 210 219 225 222 218 223 230 229 217 207 217 225 233 250 249 213 254 263 264 275 274 271 265 268 271 277 282 286 288 287 287
212 210 209 214 214 202 200 213 228 242 240 225 227 233 233 224 200 189 201 226 258 253 204 230 257 271 275 271 270 266 269 275 279 283 288 289 289 289
213 217 213 214 215 203 204 210 229 241 234 225 224 240 241 235 208 206 213 228 250 260 213 214 248 265 280 263 268 276 278 280 281 285 289 291 292 290
210 215 215 208 214 213 209 214 226 228 225 223 229 236 236 233 228 221 220 222 232 244 224 202 237 240 252 278 282 275 277 283 288 289 291 290 289 281
204 208 200 186 191 199 205 217 219 212 217 215 227 245 254 258 257 247 237 234 237 247 241 210 229 238 253 270 279 281 283 285 284 286 293 295 292 284
189 178 171 164 164 174 185 190 192 192 197 217 236 250 257 270 275 275 269 258 260 263 260 239 241 250 248 260 271 278 289 290 281 283 293 294 293 293
173 153 145 139 144 143 143 169 176 176 187 219 243 260 276 285 285 279 277 281 280 282 273 258 249 247 257 261 265 274 277 280 288 294 297 294 289 282
149 125 113 116 131 141 143 148 153 158 181 221 242 258 274 282 286 281 267 268 264 281 294 300 286 266 255 259 267 270 278 281 284 294 297 296 292 289
127 127 138 147 156 162 170 164 102 186 228 228 240 260 271 274 281 280 272 268 273 282 289 297 311 316 304 272 240 267 280 287 294 295 291 291 293 295
119 131 143 152 152 149 154 176 255 270 241 229 252 270 276 281 284 286 284 283 284 286 288 290 289 287 294 297 287 241 271 291 296 296 293 288 289 294
102 114 125 129 130 134 129 91 8 12 14 316 300 299 291 290 295 293 291 290 289 290 292 292 287 281 277 287 290 289 270 278 291 294 296 295 288 286
96 90 86 90 93 97 88 69 57 43 26 358 331 313 302 293 293 294 294 292 289 290 293 296 296 291 286 282 285 290 292 279 273 281 293 297 298 300
76 76 69 67 61 58 58 54 45 28 9 350 333 326 318 307 298 296 294 293 292 292 294 299 308 306 294 288 293 296 299 304 295 279 269 263 279 291
67 66 64 61 56 51 47 43 40 28 13 0 350 342 337 327 315 305 301 298 298 300 304 306 310 307 297 291 295 299 304 310 313 313 305 288 267 265
Height
1559 1561 1563 1564 1566 1567 1569 1570 1571 1571 1572 1573 1573 1574 1574 1575 1575 1576 1576 1577 1577 1577 1577 1576 1576 1576 1575 1575 1574 1574 1573 1572 1572 1571 1570 1569 1569 1568
1556 1558 1560 1561 1563 1564 1566 1567 1568 1569 1569 1570 1571 1571 1572 1573 1573 1573 1574 1574 1574 1574 1574 1574 1573 1573 1572 1572 1571 1571 1570 1569 1568 1567 1566 1566 1565 1564
1552 1554 1556 1558 1559 1561 1562 1563 1565 1566 1566 1567 1567 1568 1569 1569 1570 1570 1570 1571 1571 1571 1571 1570 1570 1569 1569 1568 1567 1567 1566 1565 1564 1563 1562 1561 1560 1559
1548 1550 1552 1554 1556 1557 1559 1560 1561 1562 1563 1563 1564 1565 1565 1566 1566 1567 1567 1567 1567 1567 1567 1567 1566 1565 1565 1564 1563 1562 1561 1560 1559 1558 1557 1556 1555 1554
1544 1546 1548 1550 1552 1553 1555 1556 1557 1558 1559 1560 1560 1561 1561 1562 1562 1563 1563 1563 1563 1563 1563 1562 1562 1561 1560 1559 1558 1557 1556 1555 1554 1553 1552 1550 1549 1548
1540 1542 1544 1546 1547 1549 1551 1552 1554 1554 1555 1556 1556 1557 1557 1558 1558 1558 1559 1559 1559 1559 1558 1558 1557 1556 1555 1554 1553 1552 1551 1549 1548 1547 1545 1544 1543 1542
1535 1537 1540 1542 1543 1545 1547 1548 1549 1550 1551 1551 1552 1553 1553 1553 1554 1554 1554 1554 1554 1554 1553 1553 1552 1551 1549 1548 1547 1546 1545 1543 1542 1541 1539 1538 1536 1535
1531 1533 1535 1537 1539 1541 1542 1544 1545 1546 1546 1547 1548 1548 1548 1549 1549 1549 1549 1549 1548 1549 1547 1547 1546 1545 1544 1543 1541 1540 1539 1537 1536 1534 1533 1531 1530 1528
1526 1529 1531 1532 1534 1536 1538 1539 1540 1541 1542 1543 1543 1543 1544 1544 1545 1544 1544 1543 1543 1542 1541 1540 1540 1539 1538 1536 1535 1534 1533 1531 1530 1528 1526 1525 1523 1521
1521 1524 1526 1528 1530 1531 1533 1534 1535 1536 1537 1538 1538 1538 1539 1539 1539 1539 1539 1538 1537 1537 1536 1534 1533 1533 1532 1530 1529 1528 1527 1525 1524 1522 1520 1518 1516 1514
1517 1519 1521 1523 1525 1527 1528 1529 1530 1531 1532 1532 1533 1533 1534 1534 1534 1534 1533 1533 1531 1531 1530 1529 1527 1526 1524 1524 1523 1522 1520 1519 1517 1515 1513 1511 1509 1506
1512 1514 1516 1518 1520 1522 1523 1524 1525 1526 1527 1527 1528 1528 1528 1528 1528 1528 1528 1527 1525 1524 1524 1523 1521 1520 1517 1516 1516 1515 1513 1512 1510 1508 1506 1504 1501 1499
1506 1509 1511 1513 1515 1517 1518 1518 1519 1521 1521 1522 1522 1522 1522 1522 1522 1522 1522 1521 1520 1519 1518 1517 1515 1514 1513 1510 1509 1508 1507 1505 1503 1501 1499 1497 1494 1492
1502 1504 1506 1508 1510 1511 1512 1513 1514 1515 1516 1516 1516 1516 1516 1516 1517 1517 1516 1515 1514 1514 1513 1511 1510 1509 1507 1504 1502 1501 1500 1498 1496 1494 1492 1489 1487 1484
1497 1499 1501 1503 1505 1506 1507 1507 1508 1509 1509 1510 1510 1510 1511 1511 1511 1511 1510 1509 1508 1507 1506 1505 1504 1502 1501 1498 1496 1494 1492 1490 1489 1487 1484 1481 1479 1476
1493 1495 1497 1498 1500 1500 1501 1502 1502 1503 1504 1505 1505 1505 1506 1506 1505 1505 1504 1503 1502 1501 1501 1500 1498 1496 1494 1492 1490 1487 1486 1484 1482 1480 1477 1474 1471 1468
1490 1491 1492 1494 1494 1496 1497 1498 1499 1499 1500 1500 1501 1501 1501 1501 1500 1500 1499 1498 1497 1496 1495 1494 1492 1490 1488 1487 1484 1482 1480 1478 1476 1473 1470 1466 1464 1462
1486 1487 1488 1489 1490 1492 1493 1494 1495 1495 1496 1496 1496 1496 1496 1495 1495 1495 1494 1493 1492 1490 1489 1488 1486 1484 1483 1481 1480 1477 1475 1472 1469 1467 1463 1459 1456 1454
1483 1484 1485 1486 1487 1488 1490 1491 1491 1492 1493 1493 1492 1492 1492 1491 1491 1490 1489 1488 1487 1486 1485 1483 1482 1479 1477 1475 1473 1472 1469 1466 1463 1460 1457 1454 1449 1447
1481 1482 1483 1484 1484 1486 1487 1488 1489 1489 1489 1489 1488 1488 1488 1487 1486 1486 1485 1484 1482 1481 1479 1478 1477 1475 1473 1470 1467 1465 1464 1461 1457 1454 1450 1447 1443 1440
1479 1481 1482 1483 1483 1484 1485 1485 1486 1486 1485 1485 1485 1484 1484 1483 1482 1481 1480 1479 1478 1476 1474 1473 1472 1470 1468 1465 1462 1459 1458 1456 1453 1449 1444 1441 1437 1433
1479 1480 1481 1481 1482 1482 1482 1482 1483 1482 1482 1482 1481 1480 1480 1479 1478 1477 1476 1474 1473 1471 1469 1468 1466 1465 1463 1460 1457 1454 1451 1449 1447 1444 1440 1437 1433 1428
1479 1479 1480 1480 1480 1480 1480 1480 1480 1479 1479 1478 1478 1477 1476 1475 1474 1473 1471 1470 1468 1467 1465 1463 1462 1460 1458 1456 1453 1450 1447 1444 1440 1437 1435 1432 1430 1426